Visibility
15.0 15.0 15.0 15.0 15.0 15.0 15.0 15.0 15.0 15.0 15.0 15.0 15.0 15.0 15.0 15.0 15.0 15.0 15.0 15.0 14.9 1.4 8.2 15.0 13.1 11.3 3.5 14.0 14.8 5.4 15.0 1.1 7.2 15.0 15.0 15.0 15.0 15.0 15.0 15.0 15.0 15.0 15.0 15.0
15.0 15.0 15.0 15.0 15.0 15.0 15.0 15.0 15.0 15.0 15.0 15.0 15.0 15.0 15.0 15.0 15.0 15.0 15.0 15.0 15.0 15.0 14.3 14.2 15.0 15.0 15.0 15.0 14.4 15.0 14.1 0.4 0.2 15.0 15.0 15.0 15.0 15.0 15.0 15.0 15.0 15.0 15.0 15.0
15.0 15.0 15.0 15.0 15.0 15.0 15.0 15.0 15.0 15.0 15.0 15.0 15.0 15.0 15.0 15.0 15.0 15.0 15.0 15.0 15.0 15.0 15.0 15.0 11.9 15.0 15.0 15.0 15.0 15.0 13.2 2.6 4.3 0.4 15.0 7.6 0.2 8.5 11.6 14.6 4.6 15.0 15.0 15.0
13.4 12.2 10.4 10.7 15.0 15.0 15.0 15.0 10.4 15.0 15.0 15.0 15.0 15.0 15.0 15.0 15.0 15.0 15.0 15.0 15.0 15.0 2.1 13.9 15.0 15.0 15.0 15.0 15.0 15.0 10.7 1.6 6.9 3.1 3.5 15.0 6.7 1.5 2.2 0.5 5.9 13.4 15.0 15.0
13.3 15.0 15.0 14.9 15.0 15.0 15.0 15.0 15.0 11.4 14.3 15.0 15.0 15.0 15.0 15.0 15.0 15.0 15.0 15.0 15.0 15.0 3.4 10.1 10.6 15.0 15.0 5.0 15.0 15.0 15.0 10.1 15.0 15.0 15.0 15.0 3.2 14.9 15.0 6.5 11.5 1.2 15.0 14.8
15.0 14.7 15.0 10.6 13.4 10.7 5.1 9.3 4.4 1.0 3.6 0.7 11.3 14.6 7.8 15.0 15.0 15.0 15.0 12.9 2.7 15.0 15.0 4.2 15.0 15.0 15.0 15.0 15.0 15.0 13.2 2.5 7.7 6.7 15.0 15.0 15.0 5.3 15.0 15.0 11.5 12.9 6.5 15.0
15.0 15.0 15.0 15.0 8.8 6.6 9.2 4.1 0.0 0.0 4.7 4.7 3.1 7.4 10.2 14.6 15.0 4.3 15.0 15.0 1.7 13.1 15.0 8.0 15.0 15.0 15.0 15.0 15.0 15.0 15.0 6.3 3.4 0.3 13.5 5.9 15.0 15.0 15.0 15.0 15.0 15.0 15.0 15.0
14.7 15.0 13.3 15.0 15.0 8.9 6.1 8.0 0.0 0.0 1.4 15.0 15.0 13.3 12.9 3.8 15.0 10.8 12.9 15.0 14.8 4.8 15.0 0.4 5.1 15.0 15.0 15.0 15.0 15.0 4.1 0.1 0.1 0.1 5.6 13.9 15.0 15.0 15.0 15.0 15.0 15.0 15.0 15.0
15.0 14.9 9.5 9.3 14.8 14.4 8.4 12.4 11.5 0.0 0.0 8.4 15.0 14.3 15.0 3.9 8.7 14.1 15.0 15.0 15.0 15.0 1.8 2.3 0.9 4.1 8.2 1.5 15.0 15.0 7.2 0.3 0.1 1.2 0.1 1.4 15.0 15.0 15.0 15.0 15.0 15.0 15.0 15.0
12.1 12.4 12.8 13.3 15.0 10.7 8.6 13.0 8.9 0.0 0.1 15.0 15.0 6.9 0.7 1.2 0.1 0.2 8.2 8.7 14.2 15.0 5.0 1.1 4.2 11.0 7.5 4.7 4.0 2.6 12.4 6.9 0.2 0.2 0.1 5.8 15.0 15.0 13.6 15.0 15.0 15.0 15.0 15.0
11.6 15.0 15.0 11.5 15.0 12.5 7.1 8.9 10.5 2.0 0.2 15.0 15.0 13.8 0.5 0.9 0.3 0.1 9.7 6.2 13.2 0.9 0.2 1.5 3.6 4.9 8.3 6.5 15.0 0.2 0.1 0.1 2.0 9.8 1.6 0.1 15.0 6.8 14.0 2.9 15.0 15.0 15.0 15.0
15.0 15.0 15.0 15.0 15.0 10.3 6.5 15.0 12.1 14.8 0.0 7.0 11.4 15.0 15.0 13.6 13.5 0.1 0.2 2.8 9.0 1.4 0.2 0.5 0.4 0.8 4.2 0.6 0.7 0.5 0.2 0.1 0.1 0.1 11.6 2.5 2.3 0.7 1.4 15.0 15.0 15.0 15.0 15.0
15.0 15.0 15.0 15.0 15.0 15.0 15.0 11.1 15.0 15.0 2.0 14.4 15.0 15.0 15.0 15.0 15.0 15.0 0.1 0.9 12.6 3.2 4.9 1.4 0.4 0.1 0.3 0.1 0.1 13.9 15.0 15.0 0.1 0.1 3.0 0.3 0.2 0.6 15.0 15.0 15.0 8.1 15.0 15.0
15.0 15.0 15.0 15.0 15.0 15.0 15.0 15.0 15.0 14.9 10.7 0.8 12.7 15.0 15.0 15.0 15.0 15.0 14.6 6.0 3.8 0.0 0.1 0.1 0.2 0.1 0.4 0.5 1.9 2.3 0.6 0.6 0.2 0.2 0.4 0.5 0.6 0.0 15.0 15.0 15.0 15.0 15.0 15.0
15.0 15.0 15.0 15.0 15.0 15.0 15.0 15.0 15.0 15.0 0.0 1.0 15.0 8.2 15.0 15.0 15.0 15.0 10.3 7.3 0.2 0.1 0.1 0.6 0.2 2.2 1.3 15.0 15.0 0.6 0.1 0.1 0.1 0.1 0.1 0.1 0.0 0.0 0.2 4.7 0.5 11.3 13.1 10.8
15.0 15.0 15.0 15.0 15.0 15.0 15.0 15.0 15.0 15.0 6.4 0.0 8.7 14.9 12.4 15.0 15.0 15.0 2.0 0.3 0.4 0.3 5.9 5.5 0.3 8.2 14.8 0.7 0.1 0.2 0.1 0.1 0.1 0.0 0.1 0.1 0.1 0.1 0.1 0.1 0.1 1.8 0.9 1.9
15.0 15.0 15.0 15.0 15.0 15.0 15.0 15.0 15.0 15.0 14.7 10.4 13.1 4.4 15.0 15.0 1.9 10.1 11.6 14.8 15.0 15.0 15.0 3.2 15.0 15.0 14.2 4.3 0.1 0.1 0.1 0.1 0.1 0.1 0.4 0.2 0.1 0.0 0.1 0.1 0.1 0.1 0.1 0.1
15.0 15.0 15.0 15.0 15.0 15.0 15.0 15.0 15.0 15.0 15.0 15.0 12.6 1.3 8.1 15.0 12.6 2.2 12.1 15.0 15.0 15.0 15.0 15.0 15.0 15.0 10.5 0.1 0.1 0.1 0.3 1.0 0.2 0.1 0.2 0.1 0.3 0.2 0.1 0.1 0.2 0.2 0.1 0.1
15.0 15.0 15.0 15.0 15.0 15.0 15.0 15.0 15.0 15.0 15.0 15.0 15.0 0.2 0.2 6.7 13.4 0.4 0.2 15.0 11.3 3.5 4.9 8.8 13.5 5.1 0.1 0.1 0.1 0.1 0.1 0.1 0.1 0.6 9.7 4.6 2.3 1.9 1.2 1.4 1.4 0.2 0.1 0.3
15.0 15.0 15.0 15.0 15.0 15.0 15.0 15.0 15.0 15.0 15.0 15.0 15.0 15.0 0.1 0.1 3.6 0.4 2.7 14.8 12.3 0.3 3.8 15.0 0.6 0.1 0.1 0.1 0.1 0.1 0.3 1.2 2.9 1.6 0.4 3.4 5.1 5.1 5.3 5.1 11.2 15.0 15.0 15.0
15.0 15.0 15.0 15.0 15.0 15.0 15.0 15.0 15.0 15.0 15.0 15.0 15.0 15.0 0.1 3.8 0.2 0.2 4.9 15.0 15.0 2.3 14.0 10.0 6.1 0.2 0.1 3.7 10.1 15.0 15.0 15.0 15.0 15.0 15.0 15.0 15.0 15.0 15.0 15.0 15.0 15.0 15.0 15.0
15.0 15.0 15.0 15.0 15.0 15.0 15.0 15.0 15.0 15.0 15.0 15.0 10.7 13.9 6.3 0.8 0.2 0.1 15.0 15.0 15.0 15.0 15.0 15.0 0.7 0.1 1.3 15.0 15.0 15.0 15.0 15.0 15.0 15.0 15.0 15.0 15.0 15.0 15.0 15.0 15.0 15.0 15.0 15.0
15.0 15.0 15.0 15.0 15.0 15.0 8.4 6.0 15.0 15.0 15.0 14.7 1.0 0.4 8.1 3.5 0.7 1.0 15.0 15.0 15.0 15.0 14.7 0.4 0.1 0.2 15.0 15.0 15.0 15.0 15.0 15.0 15.0 15.0 15.0 15.0 15.0 15.0 15.0 15.0 15.0 15.0 15.0 15.0
15.0 15.0 15.0 15.0 15.0 15.0 15.0 15.0 9.4 15.0 3.1 1.7 1.0 1.6 2.3 15.0 15.0 15.0 15.0 15.0 15.0 15.0 5.0 0.2 0.2 1.0 14.3 15.0 15.0 15.0 15.0 15.0 15.0 15.0 15.0 15.0 15.0 15.0 15.0 15.0 15.0 15.0 15.0 15.0
15.0 15.0 2.3 15.0 15.0 15.0 15.0 15.0 8.2 15.0 12.6 0.7 5.9 14.1 15.0 15.0 15.0 15.0 15.0 15.0 4.8 2.4 0.2 0.2 0.7 14.8 14.6 15.0 15.0 15.0 15.0 15.0 15.0 15.0 15.0 15.0 15.0 15.0 15.0 15.0 15.0 15.0 15.0 15.0
15.0 12.5 15.0 15.0 15.0 15.0 15.0 14.5 7.4 15.0 3.5 5.0 11.7 15.0 15.0 15.0 15.0 12.7 0.7 14.6 0.9 0.4 0.3 1.7 15.0 15.0 15.0 15.0 15.0 15.0 15.0 15.0 15.0 15.0 15.0 15.0 15.0 15.0 15.0 15.0 15.0 15.0 15.0 15.0
15.0 6.3 15.0 5.6 4.4 6.5 15.0 15.0 15.0 15.0 3.2 15.0 15.0 15.0 2.5 15.0 15.0 5.9 7.3 0.6 0.3 0.6 15.0 15.0 15.0 15.0 15.0 15.0 15.0 15.0 15.0 15.0 15.0 15.0 15.0 15.0 15.0 15.0 15.0 15.0 15.0 15.0 15.0 15.0